{"data":{"norad_id":69813,"epoch":"2026-09-19T21:40:08.658336Z","epoch_age_seconds":73212,"freshness":"FRESH","line1":"1 69813U 26153P   26262.90287799 -.01795309  00000+0 -12163+1 0  9991","line2":"2 69813  88.9972 351.4608 0009853 315.8657  44.1737 14.04513462 11007","mean_motion":14.04513462,"eccentricity":0.0009853,"inclination_deg":88.9972,"raan_deg":351.4608,"arg_perigee_deg":315.8657,"mean_anomaly_deg":44.1737,"bstar":-1.2163,"rev_number":1100,"period_min":102.52660718178,"perigee_km":871.05800552959,"apogee_km":885.35735835983,"semimajor_km":7256.3446819447,"source":"CELESTRAK","updated_at":"2026-09-20T09:00:25.122791Z"}}